User: anonymous   Login
Location: Unspecified
(0.0000°N, 0.0000°E)
Time: 03:32:36
(UTC+01:00)
Language:

Delta 2 Rocket - Orbit

View from above orbital plane
View from above orbital plane
View from above satellite
View from above satellite

Ground track
Ground track

The orbit data is extracted from the following two-line orbital elements,

1 20453U 90008B   15063.52312978  .00005778  00000-0  35575-3 0  9998
2 20453 035.6257 084.1875 0308657 080.3016 283.2412 14.77677443324241
Epoch (UTC): 04 March 2015 12:33:18
Eccentricity: 0.0308657
inclination: 35.6257°
perigee height: 420 km
apogee height: 853 km
right ascension of ascending node: 84.1875°
argument of perigee: 80.3016°
revolutions per day: 14.77677443
mean anomaly at epoch: 283.2412°
orbit number at epoch: 32424

The dashed part of the orbit path shows where the satellite is in the earth's shadow,  

DLR